MAS865 WIMM-WMKK

Flight info

Callsign MAS865
Flight time 0h 33m
Altitude 25000
Route PUGER PUGER1K
Aircraft B738/M-SDE2E3FGHIRWXY/LB1

Departure

Time 2026-04-24 11:21
Airport Kualanamu International Airport (WIMM)

Arrival

Time 2026-04-24 11:54
Airport Kuala Lumpur International Airport (WMKK)
Time Latitude Longitude Altitude Speed Heading
2026-04-24 10:12 3.63649 98.88082 31 ft 0 kts 225°
2026-04-24 10:52 3.63650 98.88083 31 ft 1 kts 225°
2026-04-24 10:52 3.63660 98.88094 31 ft 2 kts 225°
2026-04-24 10:52 3.63671 98.88104 31 ft 2 kts 225°
2026-04-24 10:53 3.63682 98.88114 31 ft 2 kts 225°
2026-04-24 10:53 3.63692 98.88126 30 ft 2 kts 250°
2026-04-24 10:53 3.63694 98.88141 30 ft 2 kts 276°
2026-04-24 10:53 3.63689 98.88155 30 ft 2 kts 303°
2026-04-24 10:54 3.63685 98.88161 29 ft 1 kts 319°
2026-04-24 10:54 3.63681 98.88165 29 ft 0 kts 316°
2026-04-24 10:56 3.63700 98.88145 30 ft 9 kts 315°
2026-04-24 10:56 3.63771 98.88075 31 ft 15 kts 315°
2026-04-24 10:56 3.63842 98.88004 32 ft 12 kts 315°
2026-04-24 10:56 3.63897 98.87959 32 ft 9 kts 346°
2026-04-24 10:57 3.63948 98.87990 32 ft 8 kts 46°
2026-04-24 10:57 3.63978 98.88021 32 ft 5 kts 45°
2026-04-24 10:57 3.63997 98.88040 33 ft 2 kts 45°
2026-04-24 10:57 3.64002 98.88045 33 ft 0 kts 45°
2026-04-24 10:58 3.64009 98.88052 33 ft 1 kts 45°
2026-04-24 10:58 3.64031 98.88074 34 ft 4 kts 45°
2026-04-24 10:58 3.64049 98.88091 34 ft 2 kts 44°
2026-04-24 10:58 3.64072 98.88114 35 ft 4 kts 45°
2026-04-24 10:59 3.64092 98.88134 36 ft 3 kts 45°
2026-04-24 10:59 3.64103 98.88145 36 ft 2 kts 43°
2026-04-24 10:59 3.64131 98.88147 37 ft 4 kts 330°
2026-04-24 10:59 3.64148 98.88132 37 ft 2 kts 315°
2026-04-24 11:00 3.64161 98.88119 37 ft 2 kts 316°
2026-04-24 11:00 3.64173 98.88107 36 ft 1 kts 316°
2026-04-24 11:00 3.64187 98.88094 36 ft 6 kts 316°
2026-04-24 11:00 3.64232 98.88049 36 ft 9 kts 315°
2026-04-24 11:01 3.64264 98.88018 35 ft 0 kts 315°
2026-04-24 11:01 3.64264 98.88017 35 ft 0 kts 315°
2026-04-24 11:06 3.64282 98.88000 35 ft 5 kts 315°
2026-04-24 11:06 3.64296 98.87964 34 ft 6 kts 258°
2026-04-24 11:06 3.64262 98.87921 32 ft 8 kts 226°
2026-04-24 11:07 3.64075 98.87736 29 ft 28 kts 225°
2026-04-24 11:07 3.63938 98.87600 30 ft 27 kts 224°
2026-04-24 11:07 3.63807 98.87472 36 ft 26 kts 225°
2026-04-24 11:08 3.63679 98.87345 41 ft 18 kts 224°
2026-04-24 11:08 3.63621 98.87289 44 ft 8 kts 225°
2026-04-24 11:08 3.63608 98.87252 46 ft 3 kts 282°
2026-04-24 11:08 3.63631 98.87213 46 ft 9 kts 306°
2026-04-24 11:09 3.63619 98.87159 46 ft 7 kts 229°
2026-04-24 11:09 3.63580 98.87119 47 ft 10 kts 226°
2026-04-24 11:09 3.63519 98.87057 47 ft 12 kts 225°
2026-04-24 11:09 3.63451 98.86989 46 ft 16 kts 225°
2026-04-24 11:10 3.63365 98.86901 44 ft 18 kts 226°
2026-04-24 11:10 3.63270 98.86806 40 ft 20 kts 225°
2026-04-24 11:10 3.63167 98.86703 37 ft 21 kts 225°
2026-04-24 11:10 3.63056 98.86592 33 ft 23 kts 225°
2026-04-24 11:11 3.62945 98.86479 34 ft 22 kts 225°
2026-04-24 11:11 3.62841 98.86373 36 ft 20 kts 225°
2026-04-24 11:11 3.62743 98.86277 38 ft 18 kts 225°
2026-04-24 11:11 3.62675 98.86210 41 ft 9 kts 225°
2026-04-24 11:12 3.62647 98.86181 42 ft 2 kts 225°
2026-04-24 11:12 3.62643 98.86177 42 ft 0 kts 225°
2026-04-24 11:13 3.62631 98.86165 43 ft 0 kts 225°
2026-04-24 11:13 3.62624 98.86158 43 ft 4 kts 225°
2026-04-24 11:13 3.62605 98.86140 44 ft 4 kts 225°
2026-04-24 11:14 3.62589 98.86123 44 ft 1 kts 225°
2026-04-24 11:14 3.62578 98.86112 45 ft 5 kts 225°
2026-04-24 11:14 3.62556 98.86089 46 ft 0 kts 225°
2026-04-24 11:15 3.62536 98.86069 47 ft 8 kts 225°
2026-04-24 11:15 3.62509 98.86031 48 ft 4 kts 252°
2026-04-24 11:15 3.62508 98.86026 48 ft 0 kts 255°
2026-04-24 11:16 3.62508 98.86025 48 ft 0 kts 255°
2026-04-24 11:16 3.62506 98.86017 48 ft 1 kts 255°
2026-04-24 11:16 3.62504 98.85992 48 ft 4 kts 289°
2026-04-24 11:16 3.62516 98.85964 48 ft 4 kts 298°
2026-04-24 11:17 3.62520 98.85956 48 ft 0 kts 301°
2026-04-24 11:18 3.62546 98.85922 48 ft 11 kts 313°
2026-04-24 11:18 3.62602 98.85883 47 ft 8 kts 31°
2026-04-24 11:19 3.62631 98.85907 46 ft 0 kts 45°
2026-04-24 11:20 3.62633 98.85908 46 ft 2 kts 45°
2026-04-24 11:20 3.62743 98.86019 43 ft 55 kts 44°
2026-04-24 11:20 3.63179 98.86458 33 ft 120 kts 44°
2026-04-24 11:21 3.63907 98.87178 40 ft 170 kts 45°
2026-04-24 11:21 3.64740 98.88007 660 ft 169 kts 45°
2026-04-24 11:21 3.65525 98.88950 1213 ft 185 kts 65°
2026-04-24 11:21 3.65656 98.90267 1812 ft 205 kts 98°
2026-04-24 11:22 3.65388 98.91731 2491 ft 224 kts 97°
2026-04-24 11:22 3.65214 98.93292 3256 ft 237 kts 94°
2026-04-24 11:22 3.65113 98.94984 4001 ft 253 kts 92°
2026-04-24 11:22 3.65029 98.96806 4738 ft 270 kts 92°
2026-04-24 11:23 3.64938 98.98707 5469 ft 285 kts 92°
2026-04-24 11:23 3.64833 99.00754 6176 ft 302 kts 93°
2026-04-24 11:23 3.64721 99.02874 7006 ft 312 kts 93°
2026-04-24 11:23 3.64604 99.05056 7925 ft 318 kts 92°
2026-04-24 11:24 3.64486 99.07253 8848 ft 323 kts 92°
2026-04-24 11:24 3.64364 99.09518 9805 ft 326 kts 92°
2026-04-24 11:24 3.64243 99.11777 10701 ft 330 kts 93°
2026-04-24 11:24 3.64122 99.14049 11589 ft 333 kts 93°
2026-04-24 11:25 3.63997 99.16370 12459 ft 337 kts 93°
2026-04-24 11:25 3.63828 99.18697 13268 ft 341 kts 97°
2026-04-24 11:25 3.63420 99.21026 14075 ft 344 kts 102°
2026-04-24 11:25 3.62859 99.23389 14860 ft 348 kts 104°
2026-04-24 11:26 3.62276 99.25723 15629 ft 352 kts 104°
2026-04-24 11:26 3.61703 99.28099 16374 ft 355 kts 103°
2026-04-24 11:26 3.61142 99.30534 17083 ft 359 kts 103°
2026-04-24 11:26 3.60602 99.32963 17755 ft 363 kts 103°
2026-04-24 11:27 3.60063 99.35446 18386 ft 369 kts 102°
2026-04-24 11:27 3.59522 99.37968 19005 ft 373 kts 102°
2026-04-24 11:27 3.58974 99.40533 19618 ft 378 kts 102°
2026-04-24 11:27 3.58430 99.43085 20219 ft 382 kts 102°
2026-04-24 11:28 3.57872 99.45695 20791 ft 386 kts 102°
2026-04-24 11:28 3.57303 99.48360 21345 ft 391 kts 102°
2026-04-24 11:28 3.56730 99.51039 21878 ft 395 kts 102°
2026-04-24 11:28 3.56158 99.53710 22417 ft 399 kts 102°
2026-04-24 11:29 3.55573 99.56442 22992 ft 402 kts 102°
2026-04-24 11:29 3.54987 99.59182 23497 ft 406 kts 102°
2026-04-24 11:29 3.54395 99.61943 24009 ft 410 kts 102°
2026-04-24 11:29 3.53795 99.64741 24547 ft 413 kts 102°
2026-04-24 11:30 3.53194 99.67546 24793 ft 419 kts 102°
2026-04-24 11:30 3.52580 99.70409 24791 ft 417 kts 102°
2026-04-24 11:30 3.51968 99.73259 24792 ft 415 kts 102°
2026-04-24 11:30 3.51367 99.76061 24792 ft 415 kts 102°
2026-04-24 11:31 3.50759 99.78899 24787 ft 415 kts 102°
2026-04-24 11:31 3.50156 99.81707 24788 ft 415 kts 102°
2026-04-24 11:31 3.49543 99.84568 24785 ft 415 kts 102°
2026-04-24 11:31 3.48936 99.87399 24785 ft 415 kts 102°
2026-04-24 11:32 3.48328 99.90228 24782 ft 415 kts 102°
2026-04-24 11:32 3.47726 99.93036 24784 ft 415 kts 102°
2026-04-24 11:32 3.47120 99.95855 24783 ft 415 kts 102°
2026-04-24 11:32 3.46508 99.98707 24781 ft 416 kts 102°
2026-04-24 11:33 3.45906 100.01508 24782 ft 416 kts 102°
2026-04-24 11:33 3.45295 100.04354 24782 ft 415 kts 102°
2026-04-24 11:33 3.44688 100.07181 24781 ft 415 kts 102°
2026-04-24 11:33 3.44088 100.09974 24780 ft 416 kts 102°
2026-04-24 11:34 3.43481 100.12801 24781 ft 416 kts 102°
2026-04-24 11:34 3.42870 100.15643 24781 ft 415 kts 102°
2026-04-24 11:34 3.42269 100.18446 24781 ft 414 kts 102°
2026-04-24 11:34 3.41660 100.21280 24781 ft 415 kts 102°
2026-04-24 11:35 3.41055 100.24095 24780 ft 414 kts 102°
2026-04-24 11:35 3.40450 100.26905 24781 ft 414 kts 102°
2026-04-24 11:35 3.39847 100.29693 24781 ft 412 kts 103°
2026-04-24 11:35 3.39150 100.32505 24781 ft 413 kts 105°
2026-04-24 11:36 3.38385 100.35236 24781 ft 413 kts 106°
2026-04-24 11:36 3.37569 100.38005 24782 ft 412 kts 107°
2026-04-24 11:36 3.36745 100.40762 24780 ft 413 kts 107°
2026-04-24 11:36 3.35931 100.43495 24781 ft 413 kts 107°
2026-04-24 11:37 3.35116 100.46252 24781 ft 413 kts 107°
2026-04-24 11:37 3.34309 100.49007 24780 ft 412 kts 106°
2026-04-24 11:37 3.33512 100.51747 24782 ft 414 kts 106°
2026-04-24 11:37 3.32694 100.54573 24785 ft 427 kts 106°
2026-04-24 11:38 3.31862 100.57458 24780 ft 440 kts 106°
2026-04-24 11:38 3.31001 100.60447 24783 ft 452 kts 106°
2026-04-24 11:38 3.30125 100.63496 24704 ft 460 kts 106°
2026-04-24 11:38 3.29242 100.66571 24295 ft 457 kts 106°
2026-04-24 11:39 3.28372 100.69604 23732 ft 451 kts 106°
2026-04-24 11:39 3.27510 100.72609 23004 ft 449 kts 106°
2026-04-24 11:39 3.26661 100.75570 22155 ft 450 kts 106°
2026-04-24 11:39 3.25794 100.78592 21255 ft 452 kts 106°
2026-04-24 11:40 3.24932 100.81596 20276 ft 455 kts 106°
2026-04-24 11:40 3.24065 100.84619 19189 ft 455 kts 106°
2026-04-24 11:40 3.23209 100.87605 18088 ft 442 kts 106°
2026-04-24 11:40 3.22379 100.90501 17000 ft 431 kts 106°
2026-04-24 11:41 3.21564 100.93349 16022 ft 416 kts 106°
2026-04-24 11:41 3.20782 100.96081 15386 ft 400 kts 106°
2026-04-24 11:41 3.20022 100.98733 14674 ft 398 kts 106°
2026-04-24 11:41 3.19262 101.01384 13966 ft 396 kts 106°
2026-04-24 11:42 3.18512 101.03999 13268 ft 394 kts 106°
2026-04-24 11:42 3.17759 101.06622 12566 ft 391 kts 106°
2026-04-24 11:42 3.17011 101.09226 11862 ft 389 kts 106°
2026-04-24 11:42 3.16265 101.11822 11194 ft 386 kts 105°
2026-04-24 11:43 3.15526 101.14395 10615 ft 380 kts 105°
2026-04-24 11:43 3.14809 101.16891 9993 ft 376 kts 105°
2026-04-24 11:43 3.14086 101.19408 9328 ft 374 kts 105°
2026-04-24 11:43 3.13368 101.21905 8685 ft 371 kts 105°
2026-04-24 11:44 3.12668 101.24342 8239 ft 362 kts 105°
2026-04-24 11:44 3.11980 101.26736 8003 ft 348 kts 105°
2026-04-24 11:44 3.11328 101.29003 7874 ft 332 kts 105°
2026-04-24 11:44 3.10701 101.31187 7718 ft 319 kts 105°
2026-04-24 11:45 3.10096 101.33292 7559 ft 307 kts 105°
2026-04-24 11:45 3.09521 101.35298 7393 ft 296 kts 105°
2026-04-24 11:45 3.08956 101.37272 7243 ft 285 kts 105°
2026-04-24 11:45 3.08424 101.39131 7099 ft 275 kts 105°
2026-04-24 11:46 3.07900 101.40957 6950 ft 266 kts 105°
2026-04-24 11:46 3.07398 101.42706 6815 ft 256 kts 105°
2026-04-24 11:46 3.06916 101.44388 6682 ft 248 kts 105°
2026-04-24 11:46 3.06456 101.45989 6561 ft 239 kts 105°
2026-04-24 11:47 3.06005 101.47555 6441 ft 231 kts 105°
2026-04-24 11:47 3.05572 101.49060 6324 ft 223 kts 105°
2026-04-24 11:47 3.05126 101.50542 6218 ft 225 kts 109°
2026-04-24 11:47 3.04391 101.51938 6161 ft 223 kts 125°
2026-04-24 11:48 3.03356 101.53039 6098 ft 212 kts 137°
2026-04-24 11:48 3.02188 101.53951 5767 ft 216 kts 142°
2026-04-24 11:48 3.00949 101.54808 5387 ft 217 kts 144°
2026-04-24 11:48 2.99687 101.55650 5077 ft 215 kts 144°
2026-04-24 11:49 2.98452 101.56472 4783 ft 213 kts 144°
2026-04-24 11:49 2.97219 101.57294 4494 ft 210 kts 144°
2026-04-24 11:49 2.96002 101.58106 4214 ft 208 kts 144°
2026-04-24 11:49 2.94799 101.58907 3927 ft 206 kts 144°
2026-04-24 11:50 2.93614 101.59697 3651 ft 204 kts 144°
2026-04-24 11:50 2.92432 101.60485 3378 ft 202 kts 144°
2026-04-24 11:50 2.91263 101.61264 3105 ft 202 kts 144°
2026-04-24 11:50 2.90086 101.62049 2835 ft 200 kts 144°
2026-04-24 11:51 2.88929 101.62814 2573 ft 201 kts 144°
2026-04-24 11:51 2.87755 101.63590 2309 ft 200 kts 144°
2026-04-24 11:51 2.86606 101.64358 2050 ft 200 kts 144°
2026-04-24 11:51 2.85453 101.65128 1787 ft 200 kts 144°
2026-04-24 11:52 2.84309 101.65899 1547 ft 190 kts 144°
2026-04-24 11:52 2.83251 101.66605 1279 ft 177 kts 144°
2026-04-24 11:52 2.82263 101.67261 1115 ft 160 kts 144°
2026-04-24 11:52 2.81349 101.67872 861 ft 155 kts 144°
2026-04-24 11:53 2.80462 101.68471 685 ft 149 kts 146°
2026-04-24 11:53 2.79596 101.69037 502 ft 148 kts 145°
2026-04-24 11:53 2.78715 101.69615 320 ft 154 kts 144°
2026-04-24 11:53 2.77814 101.70219 136 ft 152 kts 147°
2026-04-24 11:54 2.76968 101.70781 75 ft 122 kts 146°
2026-04-24 11:54 2.76480 101.71107 75 ft 49 kts 146°
2026-04-24 11:54 2.76222 101.71275 75 ft 43 kts 155°
2026-04-24 11:54 2.75952 101.71312 75 ft 33 kts 177°
2026-04-24 11:55 2.75761 101.71355 75 ft 22 kts 145°
2026-04-24 11:55 2.75679 101.71393 75 ft 9 kts 207°
2026-04-24 11:55 2.75636 101.71343 75 ft 9 kts 236°
2026-04-24 11:55 2.75601 101.71290 75 ft 9 kts 236°
2026-04-24 11:56 2.75561 101.71232 75 ft 13 kts 236°
2026-04-24 11:56 2.75485 101.71121 75 ft 22 kts 236°
2026-04-24 11:56 2.75400 101.70994 75 ft 18 kts 236°
2026-04-24 11:56 2.75374 101.70931 75 ft 7 kts 311°
2026-04-24 11:57 2.75412 101.70898 74 ft 4 kts 321°
2026-04-24 11:57 2.75414 101.70897 74 ft 0 kts 321°